Location: DaltonSkyGazer Observatory
(42.4858°N, 73.1565°W)
Time: 13:11:12
(UTC-04:00)

Helios 1B - Visible Passes

Search period start: 24 June 2017 00:00
Search period end: 04 July 2017 00:00
Orbit: 622 x 622 km, 98.2° (Epoch: 23 June)

Date Brightness Start Highest point End Pass type
(mag) Time Alt. Az. Time Alt. Az. Time Alt. Az.
24 Jun 5.9 00:33:01 27° E 00:33:48 29° ENE 00:37:34 10° N visible
24 Jun 5.9 02:10:14 25° W 02:10:14 25° W 02:13:32 10° NW visible
25 Jun 5.3 00:51:08 42° E 00:51:35 44° ENE 00:55:44 10° N visible
25 Jun 6.5 02:28:21 17° W 02:28:21 17° W 02:30:47 10° NW visible
26 Jun 4.6 01:09:15 68° E 01:09:27 69° ENE 01:13:47 10° N visible
26 Jun 6.9 02:46:28 11° W 02:46:28 11° W 02:47:07 10° WNW visible
26 Jun 7.1 23:50:24 10° E 23:51:50 11° ENE 23:53:17 10° NE visible
27 Jun 4.5 01:27:22 76° W 01:27:22 76° W 01:31:42 10° NNW visible
28 Jun 6.7 00:08:17 15° E 00:09:32 17° ENE 00:12:20 10° NNE visible
28 Jun 5.0 01:45:30 47° W 01:45:30 47° W 01:49:29 10° NNW visible
29 Jun 6.2 00:26:25 23° E 00:27:16 25° ENE 00:30:48 10° NNE visible
29 Jun 5.7 02:03:37 30° W 02:03:37 30° W 02:07:07 10° NW visible
30 Jun 5.5 00:44:32 36° E 00:45:03 37° ENE 00:49:04 10° N visible
30 Jun 6.3 02:21:45 20° W 02:21:45 20° W 02:24:31 10° NW visible
01 Jul 4.8 01:02:40 57° E 01:02:53 57° ENE 01:07:09 10° N visible
01 Jul 6.8 02:39:52 13° W 02:39:52 13° W 02:41:25 10° WNW visible
02 Jul 4.4 01:20:47 88° N 01:20:47 88° N 01:25:07 10° NNW visible
03 Jul 6.9 00:01:43 13° E 00:03:02 15° ENE 00:05:24 10° NNE visible
03 Jul 4.8 01:38:55 56° W 01:38:55 56° W 01:42:58 10° NNW visible
